| time (UTC) | temp C | wind direction | speed KPH | gust KPH | rain 1hr cm | rain 24hr cm | rain mn cm | humidity % | barometer mb |
| 20260510224004 | 10 | 165 | 3.2 | 12.9 | 0.00 | 0.00 | 0.00 | 77 | 927.2 |
| 20260510223805 | 10 | 165 | 3.2 | 12.9 | 0.00 | 0.00 | 0.00 | 77 | 927.2 |
| 20260510214138 | 11 | 216 | 4.8 | 9.7 | 0.00 | 0.00 | 0.00 | 70 | 927.0 |
| 20260510213948 | 11 | 216 | 4.8 | 9.7 | 0.00 | 0.00 | 0.00 | 70 | 927.0 |
| 20260510204238 | 12 | 241 | 1.6 | 9.7 | 0.00 | 0.00 | 0.00 | 67 | 926.3 |
| 20260510203840 | 12 | 241 | 1.6 | 9.7 | 0.00 | 0.00 | 0.00 | 67 | 926.3 |
| 20260510195559 | 13 | 267 | 8.0 | 24.1 | 0.00 | 0.00 | 0.00 | 59 | 925.9 |
| 20260510195322 | 13 | 267 | 8.0 | 24.1 | 0.00 | 0.00 | 0.00 | 59 | 925.9 |
| 20260510185315 | 15 | 274 | 8.0 | 24.1 | 0.00 | 0.00 | 0.00 | 53 | 925.2 |
| 20260510184830 | 15 | 274 | 8.0 | 24.1 | 0.00 | 0.00 | 0.00 | 53 | 925.2 |
| 20260510174449 | 15 | 262 | 9.7 | 27.4 | 0.00 | 0.00 | 0.00 | 50 | 925.3 |
| 20260510174311 | 15 | 262 | 9.7 | 27.4 | 0.00 | 0.00 | 0.00 | 50 | 925.3 |
| 20260510164635 | 15 | 286 | 12.9 | 30.6 | 0.00 | 0.00 | 0.00 | 55 | 925.2 |
| 20260510164320 | 15 | 286 | 12.9 | 30.6 | 0.00 | 0.00 | 0.00 | 55 | 925.2 |
| 20260510154559 | 15 | 204 | 11.3 | 37.0 | 0.00 | 0.00 | 0.00 | 61 | 925.3 |
| 20260510154319 | 15 | 204 | 11.3 | 37.0 | 0.00 | 0.00 | 0.00 | 61 | 925.3 |
| 20260510143457 | 14 | 222 | 9.7 | 30.6 | 0.00 | 0.00 | 0.00 | 58 | 925.3 |
| 20260510141912 | 14 | 210 | 9.7 | 24.1 | 0.00 | 0.00 | 0.00 | 62 | 925.7 |
| 20260510130502 | 12 | 219 | 9.7 | 20.9 | 0.00 | 0.00 | 0.00 | 73 | 926.4 |
| 20260510125706 | 12 | 219 | 9.7 | 20.9 | 0.00 | 0.00 | 0.00 | 73 | 926.4 |
| 20260510115112 | 10 | 197 | 6.4 | 22.5 | 0.00 | 0.00 | 0.00 | 81 | 926.5 |
| 20260510105708 | 8 | 262 | 11.3 | 29.0 | 0.00 | 0.00 | 0.00 | 90 | 927.1 |
| 20260510100603 | 10 | 260 | 6.4 | 14.5 | 0.00 | 0.00 | 0.00 | 88 | 926.1 |
| 20260510095141 | 10 | 260 | 6.4 | 14.5 | 0.00 | 0.00 | 0.00 | 88 | 926.1 |
| 20260510080302 | 10 | 178 | 4.8 | 12.9 | 0.00 | 0.00 | 0.00 | 82 | 925.6 |
| 20260510080137 | 10 | 178 | 4.8 | 12.9 | 0.00 | 0.00 | 0.00 | 82 | 925.6 |
| 20260510055625 | 8 | 158 | 3.2 | 8.0 | 0.00 | 0.00 | 0.00 | 94 | 925.5 |
| 20260510054905 | 8 | 158 | 3.2 | 8.0 | 0.00 | 0.00 | 0.00 | 94 | 925.5 |
| 20260510022705 | 9 | 153 | 3.2 | 9.7 | 0.00 | 0.00 | 0.00 | 93 | 926.3 |
| 20260510020310 | 9 | 153 | 3.2 | 9.7 | 0.00 | 0.00 | 0.00 | 93 | 926.3 |